Вернуться в каталог

FLOCK 4H 10

АктивенНаукаSSO
NORAD 66713·PAYLOAD·🇺🇸 United States

Запущен Nov 28, 2025 с Vandenberg Space Force Base

Loading…

Ближайшие Пролёты (ближайшие 24 часа)

TLE

СвежийSource: CelesTrak SupGP

Эпоха: Sep 14, 2026, 12:45 UTC

1 66713C 25276AZ  26257.53136574  .00010758  00000+0  48893-3 0  2573
2 66713  97.4119 329.5509 0005747  64.2308 298.7067 15.20806156    19

Отслеживайте FLOCK 4H 10 в реальном времени с AllMySat

Download on the App Store